SCP
2 3 2 2 2 2 3 3 3 2 2 2 2 2 2 1 1 1 1 1 1 1 1 1 1 1 1 1 1 1 1 1 1 1 1 1 1 1 2 2 2 2 2
2 2 2 2 2 2 2 2 2 2 2 2 2 2 1 1 1 1 1 1 1 1 1 1 1 1 1 1 1 1 1 1 1 1 1 1 1 1 2 2 2 2 2
2 2 2 2 2 2 2 2 2 2 1 1 1 1 1 1 1 1 1 1 1 1 1 1 1 1 1 1 1 1 1 1 1 1 1 1 1 1 1 1 2 2 2
1 1 1 1 1 1 1 1 1 1 1 1 1 1 1 1 1 1 1 1 1 1 1 1 1 1 1 1 2 2 2 1 1 1 1 1 1 1 1 1 1 2 2
1 1 1 1 1 1 1 1 1 1 1 1 1 1 1 1 1 1 1 1 1 1 1 2 2 2 2 2 2 2 2 1 1 1 1 1 1 1 1 1 1 2 2
1 1 1 1 1 1 1 1 1 1 1 1 1 1 1 1 1 1 1 1 1 1 1 1 2 2 2 2 2 2 2 2 2 1 1 1 1 1 1 1 1 1 1
1 1 1 1 1 1 1 1 1 1 1 1 1 1 1 1 1 1 1 1 1 1 1 1 2 2 2 2 2 2 2 2 2 2 2 1 1 1 1 1 1 1 1
1 1 1 1 1 1 1 1 1 1 1 1 1 2 1 1 1 1 1 2 2 1 1 2 2 2 2 2 2 2 2 2 2 2 2 2 1 1 1 1 1 1 1
1 1 1 1 1 1 1 1 1 1 1 1 1 1 1 1 1 1 1 1 1 1 1 1 2 2 2 2 2 2 2 2 2 2 2 2 2 2 1 1 1 1 1
1 1 1 1 1 1 1 1 1 1 1 1 1 1 0 0 0 0 0 0 1 0 0 1 1 1 1 1 1 1 1 1 1 1 2 2 3 3 2 1 1 1 1
1 1 0 0 1 1 1 1 0 0 0 0 0 0 0 0 0 0 0 0 0 0 0 0 0 0 0 1 1 1 1 1 1 1 1 2 2 3 3 2 1 1 1
0 0 0 0 0 0 0 0 0 0 0 0 0 0 0 0 0 0 0 0 0 0 0 0 0 0 0 0 0 0 0 0 0 0 1 1 1 2 2 2 2 1 1
0 0 0 0 0 0 0 0 0 0 0 0 0 0 0 0 0 0 0 0 0 0 0 0 0 0 0 0 0 0 0 0 0 0 0 0 0 1 1 1 1 1 1
0 0 0 0 0 0 0 0 0 0 0 0 0 0 0 0 0 0 0 0 0 0 0 0 0 0 0 0 0 0 0 0 0 0 0 0 0 0 1 1 1 1 1
0 0 0 0 0 0 0 0 0 0 0 0 0 0 0 0 0 0 0 0 0 0 0 0 0 0 0 0 0 0 0 0 0 0 0 0 0 0 0 0 1 1 1
0 0 0 0 0 0 0 0 0 0 0 0 0 0 0 0 0 0 0 0 0 0 0 0 0 0 0 0 0 0 0 0 1 1 1 0 0 0 0 0 0 1 1
0 0 0 0 0 0 0 0 0 0 0 0 0 0 0 0 0 0 0 0 0 0 0 0 0 0 0 0 0 0 0 0 1 1 1 0 0 0 0 0 0 0 0
0 0 0 0 0 0 0 0 0 0 0 0 0 0 0 0 0 0 0 0 0 0 0 0 0 0 0 0 0 0 0 0 1 1 0 0 0 0 0 0 0 0 0
0 0 0 0 0 0 0 0 0 0 0 0 0 0 0 0 0 0 0 0 0 0 0 0 0 0 0 0 0 0 0 0 0 0 0 0 0 0 0 0 1 1 1
0 0 0 0 0 0 0 0 0 0 0 0 0 1 1 1 1 1 1 1 0 0 0 0 0 0 0 0 0 0 0 0 0 0 0 0 0 0 0 0 0 1 1
0 0 0 0 0 0 1 1 1 1 1 0 1 1 1 1 1 1 1 1 0 0 0 0 0 0 0 0 0 0 0 0 0 0 1 0 0 0 0 0 0 0 0
0 0 0 0 1 1 1 1 2 1 1 1 1 1 1 1 1 1 1 1 0 0 0 0 0 0 0 0 0 0 0 0 0 0 0 0 0 0 0 0 0 0 0
0 0 0 0 1 1 1 2 2 2 2 1 1 1 1 1 1 1 1 0 0 0 0 0 0 0 0 0 0 0 0 0 0 0 0 0 0 0 0 0 0 0 0
0 0 0 0 0 1 1 1 2 2 2 2 2 1 1 1 1 1 0 0 0 0 0 0 0 0 0 0 0 0 0 0 0 0 0 0 0 0 0 0 0 0 0
0 0 0 0 0 0 1 1 1 2 2 2 2 1 1 0 0 0 0 0 0 0 0 0 0 0 0 0 0 0 0 0 0 0 0 0 0 0 0 0 0 0 0
0 0 0 0 0 0 0 1 1 2 2 2 2 1 0 0 0 0 0 0 0 0 0 0 0 0 0 0 0 0 0 0 0 0 0 0 0 0 0 0 0 0 0
Wind_Speed
7 6 6 5 5 5 5 4 3 3 2 1 1 1 1 1 1 1 1 2 3 2 3 4 2 4 4 4 5 5 6 6 5 6 7 8 10 10 10 10 10 12 13
7 6 5 5 5 4 4 4 4 3 2 1 1 2 2 3 2 2 1 3 3 4 4 3 5 4 4 5 5 5 6 5 4 5 6 6 7 8 9 8 9 11 10
5 6 5 5 5 4 4 3 2 2 1 1 2 2 2 3 3 3 3 3 4 4 4 5 5 5 6 5 5 6 7 6 5 5 5 5 5 4 5 7 7 8 8
5 5 5 5 5 4 4 3 2 1 1 2 3 4 4 5 4 4 3 4 5 5 5 6 6 6 6 5 7 5 6 7 6 5 5 6 5 5 5 5 6 7 8
5 5 4 4 4 4 4 3 2 1 1 2 2 4 5 5 5 4 4 6 5 5 6 6 6 6 7 7 7 6 7 6 7 6 5 6 6 7 7 6 5 6 6
5 4 4 4 4 3 3 2 2 1 1 2 3 4 5 6 7 7 7 7 6 5 6 7 7 7 7 7 7 7 8 7 7 7 6 6 6 6 6 7 6 6 6
6 5 5 5 4 3 2 1 1 1 2 3 4 4 5 7 8 8 7 7 7 6 5 7 7 7 7 8 8 8 9 8 8 8 7 7 7 6 6 7 7 6 5
6 5 5 4 3 2 2 1 1 2 2 3 4 4 5 6 6 6 8 8 7 7 7 8 8 8 9 9 8 9 9 8 8 10 9 7 8 6 7 7 7 7 6
6 5 5 4 2 1 1 1 1 2 3 3 4 4 5 6 7 7 8 7 6 7 8 8 9 9 9 10 9 9 9 9 9 10 10 9 8 7 7 7 7 7 7
6 5 4 3 2 1 0 1 2 2 3 4 4 4 5 6 6 7 7 8 8 8 9 10 10 10 10 10 10 10 9 9 9 9 10 9 9 7 7 7 7 8 8
5 5 4 3 2 1 1 1 2 3 3 4 5 6 6 6 7 7 8 8 8 9 9 10 10 10 10 10 9 11 10 11 11 10 11 11 11 9 8 7 7 7 7
5 4 3 2 1 1 2 2 3 4 4 4 5 6 6 7 8 8 8 8 9 9 9 10 10 10 10 9 10 11 11 11 12 12 11 11 10 11 10 8 8 8 7
4 4 2 1 1 2 2 3 4 4 5 6 7 7 7 8 8 9 9 9 9 9 9 9 10 10 10 10 10 11 11 12 12 12 12 12 11 11 10 10 9 8 8
5 3 2 1 1 2 3 4 4 5 5 6 7 8 8 8 9 9 9 9 9 9 9 9 10 10 10 10 11 10 11 11 12 12 12 12 12 12 11 10 11 10 9
4 3 2 1 2 2 3 4 5 5 6 7 8 8 8 9 9 9 9 9 9 9 9 9 10 10 9 9 9 10 11 11 12 12 12 13 12 10 9 9 10 10 9
4 2 2 1 2 3 4 5 5 5 6 7 8 8 9 9 9 9 9 9 9 9 9 9 10 10 9 3 4 9 12 12 12 12 12 12 12 12 13 13 13 12 11
3 2 1 1 2 3 3 5 5 6 6 7 8 8 9 9 9 10 10 10 10 9 9 9 9 10 8 4 6 8 11 13 12 12 11 11 10 10 12 13 16 16 16
4 2 1 1 2 2 3 4 6 6 7 7 8 8 9 9 10 10 10 10 9 9 9 9 10 10 8 4 7 8 12 12 12 12 12 12 12 11 10 11 12 13 14
3 2 2 1 1 3 4 5 6 7 7 7 8 8 9 10 10 10 10 10 9 10 9 9 9 9 8 5 6 8 10 10 11 11 11 12 12 9 7 11 13 13 12
4 3 2 2 2 3 4 6 7 7 7 8 8 8 9 9 10 10 10 10 9 9 10 9 9 9 9 5 5 7 9 9 9 8 9 10 11 8 7 11 12 13 12
5 4 3 3 2 3 4 6 7 7 7 8 8 9 9 9 10 9 9 9 9 9 9 10 9 9 8 7 6 6 8 8 8 8 7 6 8 10 10 11 12 11 10
5 4 4 3 3 3 4 6 7 7 7 7 8 9 9 9 8 8 9 8 9 9 9 8 9 7 6 5 4 6 8 9 10 9 7 4 3 7 9 10 10 9 9
5 4 4 4 3 4 5 7 6 6 7 8 9 9 9 9 8 8 9 8 7 7 8 8 8 7 6 4 6 9 10 10 9 8 7 7 6 8 10 13 12 11 10
5 4 4 4 4 4 5 6 6 6 7 8 9 8 9 9 8 6 7 7 7 7 8 8 8 8 7 6 5 5 5 7 9 8 7 10 11 10 9 8 11 11 9
5 5 5 5 5 5 5 5 5 6 7 8 8 8 8 8 7 7 6 7 7 6 8 9 9 8 8 7 8 8 8 8 6 7 7 6 5 6 7 7 7 8 8
5 5 5 5 5 5 5 5 5 5 7 8 7 7 7 6 7 7 7 5 8 8 10 12 11 9 8 10 10 10 10 11 9 7 7 6 5 5 5 5 6 7 7
Wind_Direction
118 117 117 116 119 118 125 125 120 127 160 177 251 272 278 291 294 294 335 293 301 303 288 298 290 278 272 275 272 268 261 259 264 266 263 252 243 240 238 236 237 233 231
136 138 141 142 136 133 138 146 151 145 183 128 302 311 317 293 294 299 292 282 281 282 276 295 289 285 285 269 273 267 274 271 256 266 275 267 246 227 234 233 233 237 233
158 156 156 155 156 151 154 143 139 163 203 256 259 271 261 266 264 276 271 283 282 273 287 289 289 294 280 280 281 274 266 272 265 252 267 274 272 286 239 235 238 237 234
172 170 167 164 167 160 148 139 151 172 218 252 279 290 293 295 305 296 298 292 277 277 275 277 278 280 283 286 274 269 272 266 264 245 242 261 289 280 271 240 232 231 235
177 178 171 160 160 160 156 151 153 164 212 274 276 277 285 293 293 294 288 285 276 271 273 274 276 274 275 283 288 287 273 268 269 268 255 249 247 249 262 267 260 247 240
177 169 156 153 156 164 171 166 159 173 231 279 294 293 299 300 302 297 296 286 281 273 272 277 280 275 278 277 274 276 266 267 273 274 270 262 258 254 255 261 261 261 254
176 171 168 163 164 170 169 185 198 246 281 290 296 297 297 292 284 289 292 291 290 286 287 289 286 284 282 279 277 269 272 268 264 261 263 266 264 265 265 268 270 268 265
171 171 167 166 170 164 169 203 262 292 305 305 307 304 297 292 300 305 303 298 296 301 307 292 284 282 280 278 275 273 266 262 261 261 262 265 262 260 259 262 269 267 259
167 169 165 159 156 151 134 334 320 314 314 312 308 298 305 310 312 304 287 291 299 296 297 293 288 285 282 279 277 270 272 268 262 259 252 249 256 254 254 256 258 264 264
169 164 154 146 140 127 64 350 334 332 320 309 308 315 311 305 301 297 307 303 299 297 293 290 289 287 283 278 272 271 265 264 262 261 264 261 256 252 252 252 254 254 262
166 158 151 148 158 179 299 316 326 321 320 319 316 312 308 308 299 292 293 295 295 295 290 290 289 286 282 279 275 271 273 267 264 261 256 252 257 256 251 247 247 249 250
159 153 150 156 188 287 318 322 320 317 317 319 311 310 311 307 304 303 303 299 295 291 289 289 286 282 280 278 274 273 273 270 266 264 262 257 252 246 250 249 247 247 248
165 159 164 193 267 311 319 319 315 319 322 323 315 318 315 314 310 308 305 301 297 293 292 289 284 282 281 278 274 273 273 271 268 266 262 259 255 252 248 246 245 244 241
178 189 195 223 288 307 315 314 319 325 323 320 318 321 319 316 312 310 307 302 297 294 292 290 287 284 280 278 276 275 274 273 271 267 263 260 256 252 250 247 244 243 244
195 199 223 262 290 309 315 320 322 323 319 316 317 320 318 316 312 310 308 306 299 294 294 293 289 286 279 276 287 289 282 277 273 269 263 258 258 265 263 263 254 245 238
203 204 222 267 297 316 322 325 319 319 313 312 316 320 317 316 314 311 309 306 302 300 297 292 291 287 284 331 317 288 285 280 275 271 267 262 248 238 234 248 260 265 256
204 214 248 280 303 313 320 314 315 311 307 309 313 316 316 315 315 313 311 309 305 301 297 294 290 287 287 271 265 265 276 275 272 270 268 264 259 242 240 230 230 240 246
203 203 224 254 286 302 302 305 307 304 304 306 311 316 317 316 315 311 310 308 305 302 298 295 292 289 287 255 258 262 265 268 268 264 262 261 264 258 254 250 242 238 232
190 188 201 239 279 291 302 304 302 305 306 309 315 319 317 313 311 310 310 309 306 302 299 292 291 289 288 258 252 266 278 270 268 265 260 258 259 250 237 252 252 249 243
179 183 190 225 258 282 296 295 301 309 312 316 318 317 311 308 306 307 307 306 303 298 298 297 293 290 290 282 255 264 278 280 278 270 263 247 248 259 232 244 248 247 245
179 183 202 237 264 280 283 289 302 310 315 315 312 308 306 304 300 302 303 303 300 300 297 297 294 288 285 276 247 250 277 286 286 281 273 263 212 228 231 241 250 253 261
185 193 208 236 255 267 272 283 296 309 309 305 303 304 306 304 305 303 301 300 299 295 293 292 294 292 284 274 261 239 252 275 281 279 277 280 214 225 231 233 243 250 255
193 206 220 240 252 257 265 281 297 304 301 301 302 305 306 304 300 300 301 299 297 296 301 301 303 306 310 290 231 239 246 250 265 278 288 284 261 245 236 231 232 233 234
194 207 228 248 259 265 267 277 289 294 293 296 301 302 302 302 307 302 299 305 307 307 307 307 308 310 310 311 320 304 272 247 251 263 262 241 238 240 251 233 215 223 227
192 205 224 245 260 266 269 273 281 286 289 295 298 300 302 308 306 302 301 300 304 314 304 307 308 308 309 336 342 313 309 314 318 308 284 271 252 236 233 231 224 221 216
199 212 227 245 257 262 265 270 275 277 286 292 299 306 309 313 308 309 305 262 258 269 260 259 272 290 291 307 304 294 286 284 284 280 268 267 262 252 242 237 230 224 220